Location: Bottens
(46.6171°N, 6.6605°E)
Time: 20:09:22
(UTC+00:00)

CBERS-1 - Pass Details

Date: 20 June 2021
Orbit: 770 x 776 km, 98.7° (Epoch: 31 July)

Event Time Altitude Azimuth Distance (km) Brightness Sun altitude
Rises 01:58:57 0° 16° (NNE) 3,267 8.8 -12.8°
Reaches altitude 10° 02:01:18 10° 20° (NNE) 2,336 7.9 -12.5°
Maximum altitude 02:06:25 64° 102° (ESE) 859 4.4 -12.0°
Enters shadow 02:11:26 10° 184° (S) 2,293 6.0 -11.5°
